Weather History for Starkville, MS

Change the Weather History Date:

Wednesday, November 21, 2012

  Actual Average Record
Temperature  
Mean Temperature 53 °F -  
Max Temperature 69 °F 61 °F 73 °F (2011)
Min Temperature 37 °F 40 °F 37 °F (2012)
Degree Days  
Heating Degree Days 12    
Growing Degree Days 3 (Base 50)    
Moisture  
Dew Point 45 °F    
Average Humidity 82    
Maximum Humidity 100    
Minimum Humidity 43    
Precipitation  
Precipitation 0.00 in - - ()
Sea Level Pressure  
Sea Level Pressure 30.18 in    
Wind  
Wind Speed 1 mph (North)    
Max Wind Speed 8 mph    
Max Gust Speed -    
Visibility 9 miles    
Events      
Averages and records for this station are not official NWS values.
T = Trace of Precipitation, MM = Missing Value Source: NWS Daily Summary

Daily Weather History Graph

Daily Weather History Graph

Search for Another Location

Airport:

Trip Planner

Search our weather history database for the weather conditions in past years. The results will help you decide how hot, cold, wet, or windy it might be!

Date:

Astronomy

Nov. 21, 2012 Rise Set
Actual Time 6:32 AM CST 4:49 PM CST
Civil Twilight 6:06 AM CST 5:16 PM CST
Nautical Twilight 5:35 AM CST 5:46 PM CST
Astronomical Twilight 5:06 AM CST 6:16 PM CST
Moon 12:49 PM CST 12:10 AM CST
Length of Visible Light 11h 10m
Length of Day
10h 16m
First Quarter, 62% of the Moon is Illuminated
Nov 21
First Quarter
Nov 28
Full
Dec 6
Last Quarter
Dec 13
New
Dec 19
First Quarter

Hourly Weather History & Observations

Time (CST) Temp. Dew Point Humidity Pressure Visibility Wind Dir Wind Speed Gust Speed Precip Events Conditions
12:15 AM 42.8 °F 42.8 °F 100% 30.14 in 7.0 mi Calm Calm - N/A   Scattered Clouds
12:35 AM 42.8 °F 42.8 °F 100% 30.13 in 10.0 mi Calm Calm - N/A   Scattered Clouds
12:55 AM 42.8 °F 42.8 °F 100% 30.13 in 10.0 mi Calm Calm - N/A   Mostly Cloudy
1:15 AM 44.6 °F 42.8 °F 93% 30.13 in 10.0 mi Calm Calm - N/A   Mostly Cloudy
1:35 AM 44.6 °F 42.8 °F 93% 30.14 in 10.0 mi Calm Calm - N/A   Scattered Clouds
1:55 AM 44.6 °F 42.8 °F 93% 30.13 in 10.0 mi Calm Calm - N/A   Scattered Clouds
2:15 AM 42.8 °F 42.8 °F 100% 30.13 in 10.0 mi Calm Calm - N/A   Scattered Clouds
2:35 AM 42.8 °F 42.8 °F 100% 30.13 in 7.0 mi Calm Calm - N/A   Clear
2:55 AM 42.8 °F 42.8 °F 100% 30.14 in 10.0 mi Calm Calm - N/A   Clear
3:15 AM 42.8 °F 41.0 °F 93% 30.14 in 10.0 mi Calm Calm - N/A   Clear
3:35 AM 41.0 °F 41.0 °F 100% 30.13 in 5.0 mi Calm Calm - N/A   Clear
3:55 AM 41.0 °F 41.0 °F 100% 30.14 in 7.0 mi Calm Calm - N/A   Clear
4:15 AM 41.0 °F 41.0 °F 100% 30.14 in 7.0 mi Calm Calm - N/A   Clear
4:35 AM 41.0 °F 41.0 °F 100% 30.15 in 5.0 mi Calm Calm - N/A   Clear
4:55 AM 41.0 °F 39.2 °F 93% 30.15 in 5.0 mi Calm Calm - N/A   Clear
5:15 AM 41.0 °F 41.0 °F 100% 30.15 in 7.0 mi Calm Calm - N/A   Clear
5:35 AM 41.0 °F 39.2 °F 93% 30.16 in 5.0 mi Calm Calm - N/A   Clear
5:55 AM 39.2 °F 39.2 °F 100% 30.16 in 10.0 mi Calm Calm - N/A   Clear
6:15 AM 39.2 °F 39.2 °F 100% 30.17 in 7.0 mi Calm Calm - N/A   Clear
6:35 AM 37.4 °F 37.4 °F 100% 30.17 in 5.0 mi Calm Calm - N/A   Clear
6:55 AM 37.4 °F 37.4 °F 100% 30.18 in 5.0 mi Calm Calm - N/A   Clear
7:15 AM 41.0 °F 39.2 °F 93% 30.19 in 4.0 mi Calm Calm - N/A   Clear
7:35 AM 44.6 °F 44.6 °F 100% 30.19 in 10.0 mi Calm Calm - N/A   Clear
7:55 AM 48.2 °F 46.4 °F 93% 30.20 in 10.0 mi NNW 3.5 mph - N/A   Clear
8:15 AM 50.0 °F 46.4 °F 87% 30.21 in 10.0 mi NNW 3.5 mph - N/A   Clear
8:35 AM 51.8 °F 46.4 °F 82% 30.21 in 10.0 mi North 3.5 mph - N/A   Clear
8:55 AM 53.6 °F 48.2 °F 82% 30.21 in 10.0 mi NNW 3.5 mph - N/A   Clear
9:15 AM 55.4 °F 48.2 °F 77% 30.22 in 10.0 mi North 3.5 mph - N/A   Clear
9:35 AM 57.2 °F 50.0 °F 77% 30.22 in 10.0 mi NNW 3.5 mph - N/A   Clear
9:55 AM 59.0 °F 50.0 °F 72% 30.22 in 10.0 mi NNE 3.5 mph - N/A   Clear
10:15 AM 60.8 °F 50.0 °F 68% 30.22 in 10.0 mi Calm Calm - N/A   Clear
10:35 AM 62.6 °F 51.8 °F 68% 30.22 in 10.0 mi North 3.5 mph - N/A   Clear
11:15 AM 64.4 °F 51.8 °F 64% 30.21 in 10.0 mi NNW 6.9 mph - N/A   Clear
11:35 AM 66.2 °F 51.8 °F 60% 30.20 in 10.0 mi North 4.6 mph - N/A   Clear
12:15 PM 68.0 °F 50.0 °F 52% 30.19 in 10.0 mi NW 5.8 mph - N/A   Clear
12:35 PM 69.8 °F 50.0 °F 49% 30.18 in 10.0 mi NNE 3.5 mph - N/A   Clear
12:55 PM 69.8 °F 50.0 °F 49% 30.18 in 10.0 mi North 5.8 mph - N/A   Clear
1:15 PM 69.8 °F 50.0 °F 49% 30.17 in 10.0 mi NNE 8.1 mph - N/A   Clear
1:35 PM 69.8 °F 50.0 °F 49% 30.17 in 10.0 mi North 5.8 mph - N/A   Clear
1:55 PM 69.8 °F 50.0 °F 49% 30.17 in 10.0 mi North 6.9 mph - N/A   Clear
2:15 PM 69.8 °F 50.0 °F 49% 30.16 in 10.0 mi North 4.6 mph - N/A   Clear
2:35 PM 69.8 °F 48.2 °F 46% 30.16 in 10.0 mi NNE 6.9 mph - N/A   Clear
2:55 PM 69.8 °F 48.2 °F 46% 30.16 in 10.0 mi North 5.8 mph - N/A   Clear
3:15 PM 69.8 °F 46.4 °F 43% 30.16 in 10.0 mi NNW 5.8 mph - N/A   Clear
3:55 PM 68.0 °F 46.4 °F 46% 30.16 in 10.0 mi North 5.8 mph - N/A   Clear
4:15 PM 66.2 °F 46.4 °F 49% 30.16 in 10.0 mi NNE 4.6 mph - N/A   Clear
4:35 PM 64.4 °F 46.4 °F 52% 30.17 in 10.0 mi Calm Calm - N/A   Clear
4:55 PM 62.6 °F 48.2 °F 59% 30.17 in 10.0 mi Calm Calm - N/A   Clear
5:15 PM 55.4 °F 48.2 °F 77% 30.17 in 10.0 mi Calm Calm - N/A   Clear
5:35 PM 55.4 °F 48.2 °F 77% 30.17 in 10.0 mi Calm Calm - N/A   Clear
5:55 PM 51.8 °F 46.4 °F 82% 30.18 in 10.0 mi Calm Calm - N/A   Clear
6:15 PM 51.8 °F 46.4 °F 82% 30.18 in 10.0 mi Calm Calm - N/A   Clear
6:35 PM 50.0 °F 46.4 °F 87% 30.19 in 10.0 mi Calm Calm - N/A   Clear
6:55 PM 50.0 °F 46.4 °F 87% 30.19 in 10.0 mi Calm Calm - N/A   Clear
7:15 PM 50.0 °F 46.4 °F 87% 30.19 in 10.0 mi Calm Calm - N/A   Clear
7:35 PM 48.2 °F 46.4 °F 93% 30.20 in 10.0 mi Calm Calm - N/A   Clear
7:55 PM 46.4 °F 44.6 °F 93% 30.20 in 10.0 mi Calm Calm - N/A   Clear
8:15 PM 46.4 °F 42.8 °F 87% 30.20 in 10.0 mi Calm Calm - N/A   Clear
8:35 PM 44.6 °F 42.8 °F 93% 30.20 in 10.0 mi Calm Calm - N/A   Clear
8:55 PM 44.6 °F 42.8 °F 93% 30.21 in 10.0 mi Calm Calm - N/A   Clear
9:15 PM 44.6 °F 42.8 °F 93% 30.21 in 7.0 mi Calm Calm - N/A   Clear
9:35 PM 44.6 °F 42.8 °F 93% 30.21 in 10.0 mi Calm Calm - N/A   Clear
9:55 PM 42.8 °F 42.8 °F 100% 30.21 in 5.0 mi Calm Calm - N/A   Clear
10:15 PM 42.8 °F 41.0 °F 93% 30.21 in 7.0 mi Calm Calm - N/A   Clear
10:35 PM 41.0 °F 41.0 °F 100% 30.21 in 2.0 mi Calm Calm - N/A   Clear
10:55 PM 41.0 °F 41.0 °F 100% 30.21 in 7.0 mi Calm Calm - N/A   Clear
11:15 PM 41.0 °F 41.0 °F 100% 30.21 in 2.0 mi Calm Calm - N/A   Clear
11:35 PM 39.2 °F 39.2 °F 100% 30.21 in 5.0 mi Calm Calm - N/A   Clear
11:55 PM 41.0 °F 39.2 °F 93% 30.20 in 7.0 mi Calm Calm - N/A   Clear